EST,Max TemperatureF,Mean TemperatureF,Min TemperatureF,Max Dew PointF,MeanDew PointF,Min DewpointF,Max Humidity, Mean Humidity, Min Humidity, Max Sea Level PressureIn, Mean Sea Level PressureIn, Min Sea Level PressureIn, Max VisibilityMiles, Mean VisibilityMiles, Min VisibilityMiles, Max Wind SpeedMPH, Mean Wind SpeedMPH, Max Gust SpeedMPH,PrecipitationIn, CloudCover, Events, WindDirDegrees
2012-12-1,71,64,56,62,58,55,100,81,61,30.33,30.28,30.25,10,9,2,14,3,17,0.01,6,Fog-Rain,37
2012-12-2,77,64,50,62,56,49,100,77,54,30.34,30.29,30.26,10,5,0,13,3,17,0.00,3,Fog,64
2012-12-3,69,62,55,64,60,55,100,91,81,30.33,30.28,30.25,10,5,0,10,2,25,0.14,7,Fog-Rain,81
2012-12-4,77,65,52,62,54,52,100,72,43,30.34,30.27,30.25,10,5,0,13,3,16,0.00,5,Fog,111
2012-12-5,76,62,47,61,54,46,100,75,49,30.23,30.16,30.10,10,8,1,12,4,,0.03,6,Rain,60
2012-12-6,72,66,59,64,60,58,100,84,68,30.12,30.07,30.03,10,8,3,18,8,24,0.05,7,Rain,43
2012-12-7,64,59,54,60,58,54,100,92,84,30.06,30.02,29.99,10,4,1,13,4,17,T,7,,21
2012-12-8,69,62,54,61,59,54,100,87,73,30.09,30.05,30.02,10,4,0,8,3,16,0.00,8,Fog,95
2012-12-9,74,65,55,68,61,54,100,90,79,30.12,30.06,30.01,10,3,0,7,2,,T,7,Fog-Rain,45
2012-12-10,81,71,61,68,64,61,100,76,51,30.00,29.91,29.82,10,6,0,14,6,34,0.05,7,Fog-Rain-Thunderstorm,211
2012-12-11,79,71,62,68,65,60,100,81,62,30.07,29.95,29.85,10,9,6,13,6,17,0.00,7,,209
2012-12-12,64,60,56,61,56,55,100,95,90,30.13,30.09,30.03,10,5,1,16,5,20,0.82,8,Rain,4
2012-12-13,59,53,46,58,49,45,100,92,83,30.29,30.22,30.11,10,5,1,14,9,20,0.04,8,,354
2012-12-14,62,54,46,52,48,45,100,80,60,30.32,30.24,30.18,10,8,3,15,7,29,0.00,7,,359
2012-12-15,69,61,52,61,56,46,100,87,73,30.20,30.14,30.09,10,7,0,9,4,13,0.00,7,Fog,54
2012-12-16,78,67,55,64,59,55,100,82,64,30.09,30.03,29.95,10,5,0,13,3,16,0.00,5,Fog,165
2012-12-17,77,67,57,66,61,57,100,80,60,29.95,29.89,29.78,10,10,10,22,7,29,0.14,7,Rain,221
2012-12-18,72,58,44,64,53,41,100,67,34,30.05,29.93,29.84,10,10,6,22,7,26,0.00,3,,268
2012-12-19,72,54,36,46,40,32,100,63,25,30.14,30.10,30.05,10,10,10,9,1,13,0.00,1,,133
2012-12-20,79,62,44,67,57,43,93,75,56,30.09,29.95,29.83,10,10,2,30,9,40,0.27,6,Rain,200
2012-12-21,60,49,37,46,27,16,67,44,20,30.17,30.06,29.91,10,10,10,29,15,36,0.00,1,,278
2012-12-22,58,44,30,32,24,19,82,53,24,30.29,30.22,30.18,10,10,10,15,7,20,0.00,0,,275
2012-12-23,62,45,27,41,30,20,92,58,23,30.28,30.21,30.15,10,10,10,8,1,9,0.00,5,,249
2012-12-24,69,54,39,57,48,37,96,74,51,30.15,30.04,29.96,10,10,5,30,5,33,0.04,7,Rain,209
2012-12-25,73,64,54,60,56,50,93,79,64,30.02,29.96,29.87,10,10,10,13,6,20,T,6,,172
2012-12-26,70,55,40,64,53,32,87,67,47,29.99,29.79,29.68,10,9,0,31,16,40,0.17,6,Fog-Rain-Thunderstorm,228
2012-12-27,59,47,34,39,35,31,92,68,43,30.10,30.05,30.00,10,10,9,15,6,21,0.00,3,,272
2012-12-28,65,48,31,54,42,29,96,72,48,30.15,30.05,29.91,10,10,7,14,3,17,0.00,6,,122
2012-12-29,71,58,44,68,54,32,97,76,55,30.18,29.91,29.77,10,9,0,22,14,29,0.55,7,Rain-Thunderstorm,244
2012-12-30,53,43,32,32,29,28,89,64,38,30.41,30.35,30.20,10,10,10,18,6,26,0.00,2,,349
2012-12-31,67,50,32,50,41,31,100,76,52,30.41,30.32,30.23,10,9,6,9,3,14,0.00,5,,28